SENTINEL-1A

Last updated on Fri Oct 04 2024 00:02:25 GMT+0000 (Coordinated Universal Time)

1 39634U 14016A 24277.56201301 .00001212 00000+0 26670-3 0 9996 2 39634 98.1830 283.1025 0001373 89.0490 271.0867 14.59199813559360
UTC large
Height (km)
Speed (km/s)
/
Latitude / Longitude
Inclination (degrees)
Orbital Period (minutes)
Azimuth
Elevation
Range (km)
Doppler Factor

Next 0 passes for location: London (51.5072 / 0.1276)

Sorry there are no passes over London.